| time (UTC) | temp F | wind direction | speed MPH | gust MPH | rain 1hr in | rain 24hr in | rain mn in | humidity % | barometer mb |
| 20260503201548 | 77 | 319 | 2.0 | 10.0 | 0.00 | 0.00 | 0.00 | 50 | 1012.2 |
| 20260503200057 | 75 | 296 | 4.0 | 9.0 | 0.00 | 0.00 | 0.00 | 51 | 1012.3 |
| 20260503194553 | 74 | 293 | 5.0 | 10.0 | 0.00 | 0.00 | 0.00 | 51 | 1012.6 |
| 20260503193055 | 75 | 297 | 4.0 | 9.0 | 0.00 | 0.00 | 0.00 | 52 | 1012.8 |
| 20260503191558 | 73 | 297 | 5.0 | 9.0 | 0.00 | 0.00 | 0.00 | 55 | 1012.8 |
| 20260503190049 | 73 | 295 | 5.0 | 9.0 | 0.00 | 0.00 | 0.00 | 56 | 1012.9 |
| 20260503184555 | 72 | 285 | 4.0 | 7.0 | 0.00 | 0.00 | 0.00 | 58 | 1013.2 |
| 20260503183111 | 70 | 273 | 4.0 | 8.0 | 0.00 | 0.00 | 0.00 | 58 | 1013.3 |
| 20260503181555 | 70 | 314 | 4.0 | 7.0 | 0.00 | 0.00 | 0.00 | 59 | 1013.4 |
| 20260503180049 | 69 | 301 | 3.0 | 10.0 | 0.00 | 0.00 | 0.00 | 60 | 1013.1 |
| 20260503174550 | 69 | 326 | 4.0 | 8.0 | 0.00 | 0.00 | 0.00 | 61 | 1014.1 |
| 20260503173116 | 68 | 319 | 5.0 | 7.0 | 0.00 | 0.00 | 0.00 | 61 | 1014.2 |
| 20260503171557 | 68 | 357 | 3.0 | 7.0 | 0.00 | 0.00 | 0.00 | 65 | 1014.4 |
| 20260503120111 | 54 | 0 | 0.0 | 0.0 | 0.00 | 0.00 | 0.00 | 88 | 1014.3 |
| 20260503081549 | 58 | 0 | 0.0 | 0.0 | 0.00 | 0.00 | 0.00 | 73 | 1014.6 |
| 20260503071554 | 61 | 0 | 0.0 | 0.0 | 0.00 | 0.00 | 0.00 | 65 | 1014.6 |
| 20260503070105 | 61 | 0 | 0.0 | 0.0 | 0.00 | 0.00 | 0.00 | 63 | 1014.6 |
| 20260503054552 | 64 | 0 | 0.0 | 0.0 | 0.00 | 0.00 | 0.00 | 58 | 1014.3 |
| 20260503053058 | 64 | 0 | 0.0 | 0.0 | 0.00 | 0.00 | 0.00 | 58 | 1014.5 |
| 20260503051555 | 66 | 309 | 2.0 | 5.0 | 0.00 | 0.00 | 0.00 | 55 | 1014.2 |
| 20260503050049 | 66 | 305 | 2.0 | 5.0 | 0.00 | 0.00 | 0.00 | 56 | 1014.2 |
| 20260503044551 | 66 | 315 | 1.0 | 5.0 | 0.00 | 0.00 | 0.00 | 59 | 1014.1 |
| 20260503043049 | 66 | 321 | 1.0 | 3.0 | 0.00 | 0.00 | 0.00 | 62 | 1014.0 |
| 20260503041605 | 67 | 327 | 1.0 | 3.0 | 0.00 | 0.00 | 0.00 | 62 | 1014.0 |
| 20260503040058 | 67 | 307 | 2.0 | 3.0 | 0.00 | 0.00 | 0.00 | 62 | 1013.8 |
| 20260503034605 | 68 | 330 | 3.0 | 5.0 | 0.00 | 0.00 | 0.00 | 61 | 1013.4 |
| 20260503033056 | 69 | 304 | 4.0 | 7.0 | 0.00 | 0.00 | 0.00 | 60 | 1013.4 |
| 20260503031552 | 69 | 303 | 4.0 | 9.0 | 0.00 | 0.00 | 0.00 | 59 | 1013.2 |
| 20260503030056 | 70 | 306 | 5.0 | 10.0 | 0.00 | 0.00 | 0.00 | 58 | 1013.1 |
| 20260503024552 | 71 | 309 | 4.0 | 11.0 | 0.00 | 0.00 | 0.00 | 58 | 1013.0 |
| 20260503023049 | 72 | 342 | 4.0 | 11.0 | 0.00 | 0.00 | 0.00 | 58 | 1012.9 |
| 20260503021546 | 73 | 316 | 4.0 | 10.0 | 0.00 | 0.00 | 0.00 | 57 | 1012.9 |
| 20260503020053 | 73 | 330 | 5.0 | 8.0 | 0.00 | 0.00 | 0.00 | 54 | 1012.9 |
| 20260503014554 | 74 | 298 | 6.0 | 10.0 | 0.00 | 0.00 | 0.00 | 53 | 1012.8 |
| 20260503013054 | 74 | 298 | 4.0 | 9.0 | 0.00 | 0.00 | 0.00 | 54 | 1012.9 |
| 20260503011548 | 74 | 312 | 4.0 | 10.0 | 0.00 | 0.00 | 0.00 | 54 | 1013.0 |
| 20260503010048 | 74 | 292 | 5.0 | 13.0 | 0.00 | 0.00 | 0.00 | 54 | 1013.0 |
| 20260503004546 | 73 | 266 | 6.0 | 12.0 | 0.00 | 0.00 | 0.00 | 54 | 1012.9 |
| 20260503003051 | 74 | 300 | 6.0 | 13.0 | 0.00 | 0.00 | 0.00 | 53 | 1013.0 |
| 20260503001608 | 75 | 293 | 2.0 | 12.0 | 0.00 | 0.00 | 0.00 | 54 | 1013.0 |
| 20260503000109 | 74 | 342 | 6.0 | 14.0 | 0.00 | 0.00 | 0.00 | 54 | 1013.2 |
| 20260502234555 | 74 | 307 | 4.0 | 14.0 | 0.00 | 0.00 | 0.00 | 55 | 1013.4 |
| 20260502233102 | 73 | 333 | 6.0 | 12.0 | 0.00 | 0.00 | 0.00 | 56 | 1013.4 |
| 20260502231605 | 72 | 290 | 6.0 | 12.0 | 0.00 | 0.00 | 0.00 | 57 | 1013.7 |
| 20260502230052 | 72 | 338 | 5.0 | 14.0 | 0.00 | 0.00 | 0.00 | 59 | 1013.7 |
| 20260502224600 | 72 | 349 | 8.0 | 13.0 | 0.00 | 0.00 | 0.00 | 61 | 1013.9 |
| 20260502223055 | 71 | 302 | 7.0 | 13.0 | 0.00 | 0.00 | 0.00 | 62 | 1014.0 |
| 20260502221559 | 71 | 277 | 4.0 | 13.0 | 0.00 | 0.00 | 0.00 | 61 | 1014.2 |
| 20260502214602 | 71 | 2 | 5.0 | 9.0 | 0.00 | 0.00 | 0.00 | 61 | 1014.3 |
| 20260502213051 | 71 | 270 | 5.0 | 10.0 | 0.00 | 0.00 | 0.00 | 60 | 1014.5 |
| 20260502211553 | 71 | 319 | 4.0 | 9.0 | 0.00 | 0.00 | 0.00 | 63 | 1014.7 |
| 20260502210104 | 69 | 300 | 5.0 | 16.0 | 0.00 | 0.00 | 0.00 | 64 | 1014.9 |
| 20260502204554 | 69 | 309 | 4.0 | 11.0 | 0.00 | 0.00 | 0.00 | 65 | 1015.1 |
| 20260502203053 | 69 | 281 | 5.0 | 11.0 | 0.00 | 0.00 | 0.00 | 64 | 1015.1 |